Regional Weather Roundup
Issued by NWS Goodland, KS

Home | Current Version | Previous Version | Text Only | Print | Product List | Glossary On
Versions: 1 2 3 4 5 6 7 8 9 10 11 12 13 14 15 16 17 18 19 20 21 22 23 24 25 26 27 28 29 30 31 32 33 34 35 36 37 38 39 40 41 42 43 44 45 46 47 48 49 50
000
ASUS43 KGLD 062159
RWRGLD

GOODLAND FORECAST AREA HOURLY WEATHER ROUNDUP
NATIONAL WEATHER SERVICE GOODLAND KS
400 PM MDT FRI MAY 06 2016

...OFFICIAL OBSERVATIONS...

CITY           SKY/WX    TMP DP  RH WIND       PRES   REMARKS
GOODLAND KS    MOSUNNY   84  34  16 S16       29.87F
HILL CITY KS   SUNNY     88  47  24 S14G29    29.87F
IMPERIAL NEB   SUNNY     86  48  26 SE16      29.84F
MCCOOK NEB     SUNNY     84  50  30 S15G21    29.85F
AKRON CO       CLOUDY    85  36  17 S18G28    29.87F
BURLINGTON CO  CLOUDY    85  28  12 S18       29.90F
LIMON CO       SUNNY     79  34  19 S18G29    29.91F
$$

...UNOFFICIAL OBSERVATIONS...

CITY           SKY/WX    TMP DP  RH WIND       PRES   REMARKS
COLBY KS       SUNNY     81  50  34 S18G24    29.89F
LENORA KS        N/A     84  32  15 MISG        N/A
NORTON KS      SUNNY     88  37  16 S13G23    29.86F
SHARON SPRINGS   N/A     87  37  17 S17G28      N/A
TRIBUNE KS     SUNNY     88  37  16 S22G29    29.92F
KIT CARSON CO    N/A     86  36  16 MISG        N/A
YUMA CO          N/A     86  36  16 S14G26      N/A
$$




USA.gov is the U.S. government's official web portal to all federal, state and local government web resources and services.